CST,Max TemperatureF,Mean TemperatureF,Min TemperatureF,Max Dew PointF,MeanDew PointF,Min DewpointF,Max Humidity, Mean Humidity, Min Humidity, Max Sea Level PressureIn, Mean Sea Level PressureIn, Min Sea Level PressureIn, Max VisibilityMiles, Mean VisibilityMiles, Min VisibilityMiles, Max Wind SpeedMPH, Mean Wind SpeedMPH, Max Gust SpeedMPH,PrecipitationIn, CloudCover, Events, WindDirDegrees
2013-11-1,50,44,37,41,38,36,100,86,66,29.88,29.64,29.44,10,9,5,13,5,17,0.00,4,,299
2013-11-2,51,43,35,37,36,34,100,84,54,30.07,30.02,29.88,10,10,7,9,4,20,0.00,2,,303
2013-11-3,55,45,35,36,34,28,93,66,36,30.07,29.93,29.82,10,10,10,23,8,36,0.00,1,,142
2013-11-4,48,40,33,45,36,30,100,76,62,30.14,29.90,29.77,10,10,7,15,7,26,0.00,3,Rain,191
2013-11-5,39,34,28,34,30,25,100,86,56,30.24,30.15,30.06,10,7,0,12,1,,0.00,4,Snow,349
2013-11-6,37,32,28,32,27,21,100,83,60,30.16,30.10,30.06,10,10,5,9,1,,0.00,3,Snow,258
2013-11-7,37,30,24,30,28,25,100,93,70,30.24,30.19,30.15,10,10,7,12,5,17,0.00,3,,268
2013-11-8,42,30,19,41,30,19,100,85,65,30.17,29.86,29.59,10,9,2,22,5,25,0.00,2,Rain,154
2013-11-9,44,40,35,41,33,25,93,76,56,30.23,29.95,29.64,10,10,10,23,13,34,0.00,7,,289
2013-11-10,37,34,30,34,31,28,93,84,70,30.32,30.23,30.10,10,10,10,0,0,,0.00,6,Rain,-1
2013-11-11,35,24,12,32,11,7,87,64,43,30.74,30.47,30.14,10,10,5,22,5,29,0.00,3,Snow,342
2013-11-12,30,20,10,16,11,7,100,70,37,30.77,30.65,30.39,10,10,10,0,0,,0.00,0,,-1
2013-11-13,53,37,21,34,26,16,87,68,44,30.37,30.03,29.86,10,10,10,4,0,,0.00,0,,220
2013-11-14,53,42,32,39,36,32,100,81,54,29.86,29.81,29.76,10,10,10,0,0,,0.00,1,,-1
2013-11-15,55,42,28,39,35,28,100,79,51,29.82,29.73,29.57,10,10,7,0,0,,0.00,0,,-1
2013-11-16,48,44,39,48,43,36,100,97,76,29.56,29.37,29.23,10,4,0,0,0,,0.00,4,Fog-Rain-Thunderstorm,-1
2013-11-17,42,36,30,43,36,27,100,90,80,29.86,29.52,29.29,10,9,1,23,4,36,0.00,7,,303
2013-11-18,35,30,21,27,22,19,93,76,56,30.22,30.11,29.87,10,10,10,18,4,30,0.00,4,,304
2013-11-19,48,34,21,32,28,19,100,72,50,30.22,29.99,29.82,10,10,10,14,0,21,0.00,0,,150
2013-11-20,46,39,32,36,32,28,100,70,53,30.02,29.88,29.81,10,9,3,10,2,18,0.00,3,,142
2013-11-21,37,28,19,36,21,12,100,80,64,30.55,30.30,30.02,10,8,3,22,11,29,0.00,7,Snow,327
2013-11-22,35,22,8,18,8,1,100,66,24,30.67,30.54,30.45,10,10,5,22,9,31,0.00,1,Snow,294
2013-11-23,15,9,3,3,2,0,92,74,53,30.85,30.76,30.65,10,10,10,18,9,20,0.00,0,,314
2013-11-24,39,22,6,19,11,1,92,62,33,30.67,30.25,29.92,10,10,10,13,4,24,0.00,0,,184
2013-11-25,39,34,28,28,25,19,93,71,52,30.10,29.98,29.88,10,10,10,20,11,25,0.00,5,,283
2013-11-26,28,19,10,21,8,1,85,63,46,30.39,30.26,30.10,10,10,10,26,16,34,0.00,4,,321
2013-11-27,24,15,6,12,8,5,100,74,50,30.38,30.20,30.03,10,10,10,14,5,21,0.00,3,,147
2013-11-28,26,18,10,16,11,9,92,66,51,30.48,30.29,30.04,10,10,10,17,5,22,0.00,4,,321
2013-11-29,33,22,10,23,16,9,93,75,52,30.48,30.31,30.07,10,10,10,14,4,22,0.00,1,,148
2013-11-30,41,30,19,28,24,19,100,80,56,30.18,30.06,30.01,10,9,5,13,4,16,0.00,2,,309